Regional Weather Roundup
Issued by NWS State College, PA

Home | Current Version | Previous Version | Graphics & Text | Print | Product List | Glossary Off
Versions: 1 2 3 4 5 6 7 8 9 10 11 12 13 14 15 16 17 18 19 20 21 22 23 24 25 26 27 28 29 30 31 32 33 34 35 36 37 38 39 40 41 42 43 44 45 46 47 48 49 50

000
ASUS41 KCTP 251810
RWRCTP

REGIONAL WEATHER ROUNDUP
NATIONAL WEATHER SERVICE STATE COLLEGE PA
200 PM EDT THU MAY 25 2017

Note: "fair" indicates few or no clouds below 12,000 feet with no
significant weather and/or obstructions to visibility.

* = STATION THAT DOES NOT REPORT PRECIPITATION /E.G. RAIN...SNOW...ETC/
    THUNDER OR FOG.

PAZ002>004-007>009-013>016-020>023-029>032-251900-
WESTERN PENNSYLVANIA

CITY           SKY/WX    TMP DP  RH WIND       PRES   REMARKS
ERIE           CLOUDY    59  56  89 NE3       29.47F
MEADVILLE      LGT RAIN  58  56  93 SW7       29.48S
FRANKLIN*      CLOUDY    57  55  94 SW9       29.50R
NEW CASTLE     CLOUDY    63  58  83 W8        29.49S
BEAVER COUNTY  CLOUDY    61  55  82 W6        29.49S
BUTLER*        PTSUNNY   63  57  82 S3        29.49F
PITTSBURGH INT PTSUNNY   65  53  65 SW12      29.48S
PITTSBURGH     CLOUDY    63  53  70 SW13      29.49R
INDIANA*       CLOUDY    61  57  88 SW7       29.54R
LATROBE        CLOUDY    61  57  88 SW14      29.52S
WASHINGTON CO* CLOUDY    63  52  67 S7        29.51S
$$

PAZ004>006-010>012-017>019-024>028-033>037-041-042-045-046-049>053-251900-
CENTRAL PENNSYLVANIA

CITY           SKY/WX    TMP DP  RH WIND       PRES   REMARKS
BRADFORD       LGT RAIN  56  56 100 S6        29.51S FOG
DUBOIS         CLOUDY    59  53  80 SE5       29.50S
CLEARFIELD     CLOUDY    60  55  83 CALM      29.52S
JOHNSTOWN      LGT RAIN  58  56  93 S6        29.52S FOG
ALTOONA        CLOUDY    63  56  78 S5        29.52F
STATE COLLEGE  PTSUNNY   61  55  82 CALM      29.53S
WILLIAMSPORT   LGT RAIN  62  59  90 E5        29.52R FOG
SELINSGROVE    CLOUDY    61  59  93 SE3       29.53S FOG
FT INDIANTOWN  CLOUDY    59  59 100 E7        29.52F FOG
CAPITAL CITY   CLOUDY    62  58  86 E6        29.52S FOG
HARRISBURG     CLOUDY    63  60  90 CALM      29.51S FOG
YORK           CLOUDY    62  59  90 CALM      29.51F
$$

PAZ038>040-043-044-047-048-054-055-060>062-067>071-251900-
EASTERN PENNSYLVANIA

CITY           SKY/WX    TMP DP  RH WIND       PRES   REMARKS
SCRANTON       CLOUDY    65  56  72 E14G28    29.52S
MOUNT POCONO   LGT RAIN  53  53 100 E12G21    29.57F FOG
ALLENTOWN      CLOUDY    61  57  87 E9        29.55F
QUAKERTOWN*    CLOUDY    57  57 100 E7        29.56F
READING        CLOUDY    62  59  90 E7        29.52S
LANCASTER      CLOUDY    64  62  93 SE5       29.51S FOG
COATESVILLE    CLOUDY    61  61 100 E12G18    29.53F
POTTSTOWN      CLOUDY    60  58  92 VRB5      29.54F
BLUE BELL      CLOUDY    59  59 100 E8        29.55S
DOYLESTOWN     CLOUDY    59  59 100 VRB3      29.55F
WILLOW GROVE   NOT AVBL
NORTH PHILA    CLOUDY    63  61  93 E12       29.56F FOG
PHILADELPHIA   CLOUDY    64  61  90 NE9       29.52S
$$




USA.gov is the U.S. government's official web portal to all federal, state and local government web resources and services.